Theta_e
306 303 308 315 317 317 319 321 321 320 325 325 325 323 322 321 321 320 320 320 319 320 329 332 324 317 319 319 321 320 325 328 326 325 324 324 325 321 323 327 328 329 327 333 333
306 307 303 311 315 316 316 319 321 319 319 323 323 323 322 321 322 321 320 318 317 321 328 329 322 317 317 319 320 322 327 327 324 321 321 322 324 323 324 326 327 329 330 335 333
309 309 306 306 311 313 313 317 321 320 320 318 321 323 322 322 322 322 321 318 318 321 323 328 321 318 319 319 321 323 328 327 320 318 318 319 319 321 323 324 324 326 330 334 338
308 309 306 306 307 309 310 311 319 320 320 324 322 323 322 322 325 322 321 318 318 323 322 325 325 319 321 320 322 322 325 326 319 316 317 319 318 319 320 323 321 323 329 332 336
308 309 307 304 306 307 308 308 311 319 320 321 324 322 322 321 322 320 319 320 319 323 322 324 327 325 323 321 319 321 324 321 317 316 317 316 318 318 319 320 321 325 331 329 338
308 310 310 309 306 306 306 306 309 312 320 322 323 322 322 321 321 321 318 321 321 322 323 323 326 326 323 324 322 322 322 319 317 319 318 320 319 316 320 319 321 326 330 331 333
308 310 310 310 311 310 309 306 310 310 318 321 323 321 320 319 321 321 320 319 320 322 323 323 323 324 322 322 321 320 322 320 320 320 321 318 324 319 319 319 321 325 328 332 332
306 309 310 310 310 312 311 310 310 311 312 319 317 321 320 319 320 320 319 320 319 320 323 323 320 322 321 320 318 322 323 326 324 320 320 319 327 325 320 319 321 323 326 330 332
305 308 308 308 309 313 313 312 311 313 313 315 315 320 320 320 320 320 319 319 318 319 321 321 320 321 320 323 326 324 328 326 327 323 323 320 327 326 318 319 321 322 324 329 330
304 305 307 306 307 311 314 313 312 313 314 313 314 319 317 319 320 319 319 319 319 320 320 321 321 323 323 326 334 328 328 327 329 324 319 323 323 325 317 318 320 321 323 326 329
305 305 304 305 306 309 312 313 315 315 314 313 318 319 316 320 320 318 319 319 319 320 323 322 324 327 326 325 327 327 326 329 328 322 319 323 325 325 324 319 318 319 321 324 326
305 306 305 306 307 308 310 313 314 314 314 312 311 319 318 319 319 318 318 319 320 322 321 321 326 324 324 324 326 327 328 329 328 315 316 323 324 321 321 322 318 318 319 321 324
307 306 307 308 309 308 309 311 314 314 316 313 312 319 319 319 319 318 318 319 321 322 322 322 322 323 325 325 326 327 328 329 330 322 320 324 327 327 325 321 319 317 316 318 321
305 306 306 306 307 308 309 310 312 314 314 311 318 317 318 320 319 318 319 319 320 323 322 320 321 324 326 327 326 328 323 326 326 325 329 322 330 328 328 327 323 319 317 316 318
302 302 302 303 307 308 308 309 311 314 318 312 316 317 318 319 317 318 318 318 320 321 321 322 321 323 325 324 325 324 322 323 317 322 321 325 325 326 325 327 326 325 320 317 316
299 299 299 302 304 307 307 309 314 315 319 311 311 316 319 318 318 317 317 318 318 319 319 317 315 322 323 322 324 317 316 316 318 321 327 325 325 324 325 324 323 322 322 321 317
297 300 300 304 305 302 309 312 315 317 307 309 312 317 319 320 318 318 316 319 322 321 322 317 318 314 318 318 317 317 323 323 326 326 327 317 325 324 323 323 322 319 320 320 318
298 301 302 303 304 304 305 310 316 315 311 308 314 318 319 319 319 318 318 320 319 318 320 320 319 314 317 318 317 318 322 324 328 325 324 311 323 322 320 317 312 317 315 314 316
299 301 303 304 305 305 304 308 315 312 310 313 317 319 318 317 318 318 318 320 319 318 319 319 319 313 314 316 317 318 321 319 319 310 320 320 318 317 317 317 316 315 314 314 312
300 303 303 303 304 304 303 306 309 311 312 315 319 316 316 314 319 318 319 319 319 318 317 317 318 313 311 315 313 319 317 320 320 326 324 321 322 321 317 318 318 316 314 315 314
301 303 305 305 303 301 305 307 306 311 314 316 317 317 316 315 319 320 320 318 318 318 317 317 317 314 312 316 317 317 318 318 320 321 322 322 321 316 319 316 315 312 310 311 311
301 304 304 304 303 304 306 306 307 309 313 315 317 317 317 318 319 319 320 319 317 317 318 315 315 314 314 310 312 316 317 318 321 320 319 320 320 313 313 312 311 311 311 311 311
302 302 303 305 306 306 306 307 307 312 314 315 316 316 316 318 319 319 318 315 316 316 317 313 316 315 313 312 312 314 317 318 318 317 322 323 321 319 313 311 311 311 311 311 311
301 304 300 302 301 305 308 308 309 312 314 315 316 316 317 318 318 317 316 313 314 315 313 311 315 316 317 316 314 314 315 315 317 319 320 320 320 318 316 315 313 312 313 313 312
301 302 301 305 304 304 306 309 311 312 308 312 313 317 318 316 316 314 312 314 314 314 312 314 316 315 314 314 314 314 314 315 316 318 319 319 318 318 318 318 317 316 315 314 314
300 301 299 302 300 303 305 308 312 307 310 311 314 317 316 315 315 314 312 313 314 314 313 312 318 313 311 313 314 315 316 315 315 316 316 317 317 316 315 315 314 314 314 313 313
300 300 300 303 304 305 307 309 311 310 311 311 314 315 315 314 313 312 311 311 313 315 315 312 311 315 314 312 312 314 314 316 316 315 316 317 317 314 314 314 313 313 312 312 312
Wind_Speed
35 35 38 33 32 33 33 31 30 32 32 24 24 21 20 18 18 18 18 16 21 11 16 19 12 9 11 7 9 4 9 10 12 8 1 4 7 2 2 3 6 5 1 3 20
35 34 38 38 35 31 33 32 34 32 34 32 26 23 23 19 17 20 19 22 16 19 14 19 15 6 6 6 6 9 10 13 4 3 3 4 6 5 5 7 8 8 5 13 22
33 33 37 39 38 35 28 36 34 34 33 37 43 28 26 21 13 24 27 22 20 20 12 16 12 12 8 6 10 11 14 8 4 4 2 3 2 6 8 8 9 10 11 16 23
35 32 33 38 39 39 34 30 35 35 37 35 36 32 31 26 10 8 21 24 20 21 15 15 16 10 4 8 14 7 19 14 9 4 3 3 1 3 12 8 2 4 14 18 25
34 31 31 35 38 40 38 34 35 36 40 38 32 38 34 20 26 8 9 24 24 25 18 17 21 18 12 10 8 12 11 5 7 7 4 3 1 6 11 11 5 5 14 17 22
32 30 31 31 36 40 38 37 37 37 41 38 38 36 35 18 20 19 8 27 25 26 21 19 14 16 15 4 13 12 12 13 9 5 3 3 1 1 3 7 8 11 13 16 21
33 30 32 30 32 37 38 38 35 33 44 44 44 37 32 32 22 25 9 26 23 24 23 19 9 16 7 3 4 3 10 6 9 7 8 3 14 9 10 4 10 12 13 15 19
36 29 29 30 29 33 38 37 34 35 52 53 21 39 21 38 18 31 15 22 20 20 18 18 9 11 7 4 2 8 9 9 10 12 5 5 19 15 6 7 12 13 14 15 19
34 31 27 27 27 29 37 36 32 30 44 59 42 36 17 32 28 28 25 25 22 17 15 18 16 11 10 7 3 7 10 15 12 13 12 12 13 19 5 10 13 14 15 16 16
33 34 30 26 26 24 32 36 30 28 29 37 47 27 19 39 35 30 27 24 27 20 15 14 8 10 10 11 11 5 11 11 17 9 8 14 17 14 9 9 11 14 15 17 18
32 32 33 29 27 25 25 27 26 17 34 30 17 23 30 36 37 31 29 29 26 24 13 16 7 19 21 17 8 14 11 16 11 5 4 14 18 19 24 17 13 14 17 18 20
30 29 32 30 29 27 26 29 40 6 14 41 57 36 34 46 24 38 37 22 23 20 20 7 19 18 17 17 14 8 16 16 5 5 4 13 17 13 19 21 20 19 18 20 18
28 29 29 28 26 25 28 39 41 17 5 29 50 40 42 47 30 43 47 28 25 22 20 18 14 16 19 17 17 10 16 14 11 3 10 14 23 22 19 25 23 22 23 21 22
26 27 25 23 23 26 31 30 36 24 4 5 33 21 36 32 16 47 41 27 12 21 17 12 15 20 17 21 18 12 3 4 1 3 6 1 8 14 11 20 22 29 28 26 24
25 24 24 27 12 25 26 31 32 18 6 12 10 38 38 36 35 37 39 17 22 17 10 10 15 20 21 21 18 2 11 4 2 1 7 13 7 8 12 17 17 23 30 29 30
25 25 23 23 24 19 18 22 31 9 10 11 11 14 22 21 28 39 17 15 22 21 8 4 4 12 18 17 13 18 9 9 7 3 7 15 12 11 15 17 12 18 23 29 31
24 24 26 23 21 26 19 23 10 12 10 5 9 19 19 28 14 22 13 16 16 17 15 8 11 3 10 11 15 4 12 1 1 4 7 4 11 15 14 12 8 10 13 17 25
25 23 24 26 20 13 29 11 13 12 10 2 17 30 13 26 18 23 18 15 19 16 16 11 6 11 17 9 10 8 5 5 9 7 7 2 10 5 8 6 9 14 13 12 14
22 21 22 23 21 22 10 12 6 10 11 16 26 33 10 13 9 19 21 25 18 22 15 16 8 10 13 8 17 6 5 4 4 2 2 7 10 14 14 14 14 17 14 16 6
15 14 18 19 17 18 3 6 4 16 16 29 23 12 14 12 16 19 23 24 20 22 12 17 7 8 5 13 4 12 13 5 1 6 7 10 15 10 6 10 10 11 8 8 8
15 8 9 16 15 8 5 7 7 20 30 28 23 17 20 24 23 31 33 20 26 27 17 23 8 5 7 11 15 9 9 7 5 5 4 5 9 4 4 4 4 2 2 1 2
11 4 17 24 3 2 5 4 5 16 24 17 22 22 32 30 19 12 24 15 32 24 24 9 6 9 12 3 4 16 14 12 7 6 7 4 11 4 5 6 7 6 6 6 6
6 5 8 25 5 7 5 13 12 24 26 15 21 16 22 20 11 13 21 11 31 25 23 12 8 8 2 5 7 15 18 18 9 3 9 6 11 9 11 5 2 4 3 3 5
7 4 4 6 5 4 6 8 7 32 24 21 23 17 25 22 13 13 18 8 29 26 16 8 9 11 12 8 14 14 22 19 17 6 17 16 27 7 5 2 4 4 4 10 13
7 3 2 5 5 9 7 10 17 14 4 14 13 28 34 16 20 14 19 14 15 21 9 8 5 10 6 9 17 17 20 21 24 30 15 23 23 18 18 16 16 17 21 19 21
6 5 3 1 1 6 10 13 23 10 20 20 21 31 29 24 19 35 25 20 19 18 15 7 4 8 4 9 12 12 20 26 28 26 23 23 22 14 20 15 14 19 21 20 17
6 8 3 4 3 3 4 11 24 19 16 12 33 33 28 23 16 27 26 18 20 21 20 12 6 4 5 4 6 4 20 23 24 23 27 21 26 9 7 8 16 19 18 17 20
Wind_Direction
236 234 231 229 232 232 230 227 228 230 222 214 216 207 215 215 223 223 218 226 222 218 206 205 203 202 194 201 221 257 237 232 226 235 158 133 188 168 204 155 194 182 119 132 177
237 235 231 227 229 228 229 226 226 226 225 226 224 216 217 216 221 224 227 228 222 213 198 197 185 173 191 201 207 230 223 233 338 12 97 153 222 179 207 197 215 186 154 150 170
238 233 232 231 228 231 228 227 224 224 217 235 242 220 218 210 223 239 229 226 215 208 193 195 178 165 191 192 203 226 238 221 151 128 146 109 221 232 237 233 236 212 184 173 176
231 231 231 231 227 230 227 227 224 221 217 224 220 215 213 197 211 196 228 222 213 200 192 181 187 177 168 196 205 239 230 225 158 137 172 132 126 247 244 254 340 224 184 184 184
229 229 224 230 227 228 227 224 225 221 219 218 216 202 202 207 211 275 226 201 204 195 186 183 190 192 189 203 191 229 222 226 165 154 124 141 81 280 263 257 270 177 176 192 188
226 223 219 225 226 228 225 224 222 222 219 214 217 207 204 218 206 228 236 195 195 190 190 191 195 190 205 237 208 215 207 206 193 184 148 277 256 268 240 234 211 194 189 193 194
226 223 218 221 222 223 222 219 223 231 213 213 211 201 205 214 201 200 213 201 190 190 190 191 198 178 142 131 220 169 196 194 203 236 240 272 255 230 262 206 213 214 207 196 200
222 219 216 220 222 223 218 214 221 238 215 216 219 192 210 202 197 202 186 177 186 186 193 186 172 167 154 142 158 212 230 206 219 209 220 207 257 241 234 234 225 216 215 209 209
218 217 217 217 221 218 211 212 224 227 220 220 239 188 194 188 187 181 181 174 169 168 172 180 175 180 152 129 175 202 218 220 236 207 217 212 258 251 229 232 239 222 216 218 219
216 214 213 217 217 213 209 211 217 223 221 212 220 185 164 183 180 173 184 171 162 154 144 164 169 187 190 179 197 181 194 222 226 176 213 232 248 257 202 237 245 238 219 219 223
211 212 217 216 215 214 203 205 198 203 210 205 268 187 168 173 172 170 174 164 167 172 175 174 181 201 196 198 218 195 197 232 225 151 224 241 251 248 245 235 237 236 235 224 227
206 206 210 212 215 214 211 209 203 214 207 215 234 193 165 162 161 167 162 159 168 181 170 165 215 201 202 200 206 216 204 219 260 146 241 262 258 251 254 252 237 237 230 230 224
198 201 203 206 211 215 215 217 201 212 224 221 223 210 161 166 168 168 169 174 177 181 186 194 191 191 202 198 202 208 215 222 219 161 242 274 274 258 249 244 242 244 235 229 224
197 199 197 200 209 218 223 220 212 214 214 266 191 189 169 171 171 170 175 162 166 182 172 214 204 190 199 195 195 197 198 236 284 257 268 190 282 272 252 230 223 231 231 227 221
207 209 203 204 199 208 219 218 208 197 232 150 184 163 166 164 141 179 171 178 170 162 168 175 161 186 195 205 200 165 179 194 105 340 327 241 266 270 245 246 249 229 231 229 221
215 216 211 213 220 216 218 206 192 220 202 175 182 155 158 147 155 159 167 172 161 149 161 110 168 180 201 200 179 136 97 60 56 44 251 243 242 255 253 242 245 245 248 233 230
211 212 211 206 224 221 203 181 212 213 140 211 173 164 159 147 139 164 155 162 160 157 172 145 158 119 154 104 135 133 157 136 194 201 249 359 222 254 285 274 277 288 274 242 234
204 206 213 217 219 212 203 223 237 191 168 170 169 159 171 147 157 167 156 166 173 176 148 158 188 178 171 166 166 172 147 179 202 217 254 128 239 266 234 275 266 247 255 254 244
201 209 218 219 218 206 149 229 248 147 154 162 163 164 158 162 132 160 175 176 177 172 163 175 151 178 161 129 151 159 178 304 99 40 287 222 248 258 230 250 252 254 247 241 257
196 208 225 213 197 177 143 251 293 169 159 165 168 151 156 152 155 174 177 184 179 190 150 164 125 184 147 150 197 183 153 130 157 203 241 246 247 246 204 247 263 237 257 247 253
187 195 179 193 192 150 193 224 233 213 167 169 164 156 167 158 165 179 185 179 185 186 180 159 137 162 159 201 171 162 179 202 188 233 235 279 258 346 242 243 248 89 48 299 225
181 187 166 166 147 152 215 226 259 226 177 181 180 171 170 163 165 157 182 170 170 174 170 126 113 149 178 100 225 198 186 179 189 182 243 312 263 137 137 127 158 145 112 81 65
191 139 169 174 183 200 203 209 233 185 178 189 172 182 158 169 143 161 168 172 164 169 164 160 135 115 133 314 211 211 203 199 219 28 206 200 264 224 166 136 165 161 139 5 333
169 163 192 187 193 218 176 220 219 180 179 175 174 156 155 165 129 146 147 169 163 177 157 133 159 177 186 187 147 194 201 197 199 198 223 217 252 210 145 248 242 238 297 305 300
185 205 205 166 225 229 213 204 188 158 238 160 162 165 161 147 135 148 132 135 175 180 157 166 140 196 91 147 171 190 192 190 207 224 215 236 242 256 274 290 279 292 298 296 299
167 165 162 209 198 235 220 213 181 143 167 171 165 167 162 166 181 168 156 162 174 187 180 196 124 134 48 156 170 185 195 204 212 220 230 244 252 273 281 275 285 278 285 287 290
187 158 184 152 201 236 203 198 174 166 198 190 164 161 175 178 143 154 158 133 156 171 183 163 135 135 143 140 108 281 218 205 215 216 222 232 237 205 282 298 260 270 274 288 290